Printer-friendly version
Follow the MPC on Twitter Follow the MPC on Facebook The MPC blog
Minor Planet Center

MPEC 2000-P22 : 2000 PE3

The following Minor Planet Electronic Circular may be linked-to from your own Web pages, but must not otherwise be redistributed electronically.

A form allowing access to any MPEC is at the bottom of this page.


Read MPEC 2000-P21 Read MPEC 2000-P23


M.P.E.C. 2000-P22                                Issued 2000 Aug. 4, 19:53 UT

     The Minor Planet Electronic Circulars contain information on unusual
         minor planets and routine data on comets.  They are published
   on behalf of Commission 20 of the International Astronomical Union by the
          Minor Planet Center, Smithsonian Astrophysical Observatory,
                          Cambridge, MA 02138, U.S.A.

             Prepared using the Tamkin Foundation Computer Network

             BMARSDEN@CFA.HARVARD.EDU or GWILLIAMS@CFA.HARVARD.EDU
          URL http://cfa-www.harvard.edu/iau/mpc.html  ISSN 1523-6714

                                   2000 PE3

Observations:
     K00P03E* C2000 08 01.32105 22 41 23.80 -14 51 22.6          17.9        704
     K00P03E  C2000 08 01.33563 22 41 17.07 -14 50 31.5          17.7        704
     K00P03E  C2000 08 01.35016 22 41 10.33 -14 49 39.8          17.6        704
     K00P03E  C2000 08 01.36507 22 41 03.46 -14 48 46.5          18.1        704
     K00P03E  C2000 08 01.37964 22 40 56.65 -14 47 53.9          18.1        704
     K00P03E  C2000 08 01.95875 22 36 44.82 -14 14 14.8                      611
     K00P03E  C2000 08 01.96270 22 36 42.85 -14 14 03.1                      611
     K00P03E  C2000 08 01.96928 22 36 39.75 -14 13 36.2                      046
     K00P03E  C2000 08 01.97013 22 36 39.58 -14 13 35.0                      046
     K00P03E  C2000 08 01.97079 22 36 39.26 -14 13 32.1                      046
     K00P03E  C2000 08 01.97197 22 36 38.85 -14 13 27.8                      611
     K00P03E  C2000 08 01.97269 22 36 38.42 -14 13 26.4                      046
     K00P03E  C2000 08 01.97333 22 36 38.15 -14 13 24.0                      046
     K00P03E  C2000 08 01.97421 22 36 37.66 -14 13 19.9                      046
     K00P03E  C2000 08 01.97487 22 36 37.42 -14 13 18.7          17.6 R      046
     K00P03E  C2000 08 01.99731 22 36 27.62 -14 12 00.4          18.2        120
     K00P03E  C2000 08 02.00015 22 36 26.47 -14 11 50.0                      120
     K00P03E pC2000 08 02.00282 22 36 25.37 -14 11 42.4                      120
     K00P03E  C2000 08 02.01720 22 36 18.81 -14 10 53.7                      118
     K00P03E  C2000 08 02.01980 22 36 17.66 -14 10 44.6          18   R      118
     K00P03E  C2000 08 02.02527 22 36 15.23 -14 10 25.9                      118
     K00P03E  C2000 08 02.29465 22 34 22.73 -13 55 03.1          18.1        704
     K00P03E  C2000 08 02.30894 22 34 16.53 -13 54 16.5          18.5        704
     K00P03E  C2000 08 02.32344 22 34 10.26 -13 53 27.8          18.2        704
     K00P03E  C2000 08 02.33773 22 34 04.09 -13 52 39.5          18.8        704
     K00P03E  C2000 08 02.35205 22 33 58.02 -13 51 50.0          18.7        704
     K00P03E  C2000 08 02.38494 22 33 43.65 -13 49 59.1                      711
     K00P03E  C2000 08 02.38937 22 33 41.71 -13 49 44.4                      711
     K00P03E  C2000 08 02.39366 22 33 39.87 -13 49 29.8                      711
     K00P03E 1C2000 08 02.40257 22 33 36.86 -13 49 07.7                      658
     K00P03E 1C2000 08 02.40451 22 33 36.03 -13 49 01.6                      658
     K00P03E 1C2000 08 02.40740 22 33 34.78 -13 48 52.3                      658
     K00P03E  C2000 08 03.29338 22 27 40.01 -13 00 40.7          17.8        704
     K00P03E  C2000 08 03.30757 22 27 34.35 -12 59 56.5          18.6        704
     K00P03E  C2000 08 03.32180 22 27 28.55 -12 59 11.4          18.7        704
     K00P03E  C2000 08 03.33600 22 27 22.82 -12 58 26.7          18.8        704
     K00P03E  C2000 08 03.35141 22 27 16.66 -12 57 38.5          18.9        704
     K00P03E  C2000 08 03.37459 22 27 07.20 -12 56 24.1                      711
     K00P03E  C2000 08 03.37597 22 27 06.96 -12 56 22.6          18.8 R      854
     K00P03E  C2000 08 03.37726 22 27 06.51 -12 56 17.0          18.8 R      854
     K00P03E  C2000 08 03.37852 22 27 05.65 -12 56 11.4                      711
     K00P03E  C2000 08 03.37853 22 27 05.91 -12 56 13.8          18.9 R      854
     K00P03E  C2000 08 03.38245 22 27 04.03 -12 55 59.6                      711
     K00P03E  C2000 08 03.54161 22 26 04.85 -12 46 57.1          18.1 R      422
     K00P03E  C2000 08 04.26101 22 21 36.65 -12 11 10.6                      711
     K00P03E  C2000 08 04.26573 22 21 34.87 -12 10 56.8                      711
     K00P03E  C2000 08 04.27006 22 21 33.23 -12 10 44.1                      711

Observer details:
046 Klet.  Observer M. Tichy.  0.57-m f/5.2 reflector + CCD.
118 Modra.  Observers A. Galad, P. Koleny.  0.6-m f/5.5 reflector + CCD.
120 Visnjan.  Observers B. Lukic, J. Peric.  Measurers D. Dermadi,
    K. Korlevic, B. Lukic, M. Juric.  0.41-m f/4.3 reflector + CCD.
422 Loomberah.  Observer G. J. Garradd.  0.45-m f/5.4 reflector + CCD.
611 Starkenburg.  Observers S. Kluegl, M. Busch.  0.45-m f/4.4 reflector + CCD.
658 National Research Council of Canada.  Observer D. D. Balam.  1.82-m
    Plaskett reflector + CCD.
704 Lincoln Laboratory ETS, New Mexico.  Observers M. Blythe, F. Shelly,
    M. Bezpalko, M. Elowitz, R. Huber, L. Manguso.  Measurers J. Stuart,
    R. Sayer, J. B. Evans, H. Viggh.  1.0-m f/2.15 reflector + CCD.
711 McDonald Observatory.  Observers P. J. Shelus, J. G. Ries.  0.76-m
    reflector + CCD.
854 Sabino Canyon Observatory, Tucson.  Observer J. E. McGaha.  0.30-m f/6.1
    Schmidt-Cassegrain + CCD.

Orbital elements:
2000 PE3
Epoch 2000 July 15.0 TT = JDT 2451740.5                 Williams
M  13.07410              (2000.0)            P               Q
n   0.29551596     Peri.  274.66208     -0.59245036     +0.77981009
a   2.2322805      Node   316.80901     -0.57082685     -0.58348883
e   0.6465076      Incl.   17.18618     -0.56847100     -0.22679728
P   3.34           H   20.6           G   0.15
From 47 observations 2000 Aug. 1-4.

Ephemeris:
2000 PE3                 a,e,i = 2.23, 0.65, 17                  q = 0.7891
Date    TT    R. A. (2000) Decl.     Delta      r     Elong.  Phase     V
2000 08 04    22 23.19   -12 23.8    0.215    1.218   158.8    17.6    18.6
2000 08 09    21 57.20   -08 50.2    0.257    1.266   167.9     9.7    18.8
2000 08 14    21 38.75   -06 19.9    0.304    1.315   172.0     6.2    19.1
2000 08 19    21 25.54   -04 35.3    0.356    1.364   169.2     8.0    19.6
2000 08 24    21 16.12   -03 22.6    0.413    1.412   164.0    11.4    20.1
2000 08 29    21 09.55   -02 32.1    0.473    1.461   158.7    14.6    20.6
2000 09 03    21 05.23   -01 57.1    0.537    1.508   153.5    17.3    21.1
2000 09 08    21 02.70   -01 32.5    0.604    1.556   148.7    19.7    21.5
2000 09 13    21 01.62   -01 15.0    0.675    1.603   144.1    21.6    21.8
2000 09 18    21 01.73   -01 02.0    0.749    1.649   139.7    23.2    22.2
2000 09 23    21 02.83   -00 51.8    0.827    1.695   135.5    24.5    22.5

Carl W. Hergenrother         (C) Copyright 2000 MPC           M.P.E.C. 2000-P22

Read MPEC 2000-P21 Read MPEC 2000-P23


MPEC number:

Enter an MPEC number in one of the following forms:

  • 1997-B01 (the full form)
  • J97B01 (the packed version of the full form)
  • B01 (the abbreviated form)

Valid HTML 4.01!